• In Hungary
  • List of Countries
  • For 7 days
  • Water Temperature
  • Satellite Maps
  • Weather Map
  • News
  • Weather Widgets
  • user-avatar
    Login

    Hourly Weather Posohlya

    Today, 21 February, Wednesday

    Time Temperature Precipitation Wind Pressure Humidity
    00:00 -12°C° 0 mm 1 mps 750 mmHg 94%
    01:00 -13°C° 0 mm 1 mps 750 mmHg 95%
    02:00 -14°C° 0 mm 1 mps 751 mmHg 95%
    03:00 -14°C° 0 mm 1 mps 751 mmHg 95%
    04:00 -15°C° 0 mm 1 mps 751 mmHg 95%
    05:00 -15°C° 0 mm 1 mps 751 mmHg 95%
    06:00 -15°C° 0 mm 1 mps 751 mmHg 95%
    07:00 -15°C° 0 mm 1 mps 751 mmHg 95%
    08:00 -15°C° 0 mm 1 mps 751 mmHg 95%
    09:00 -13°C° 0 mm 1 mps 751 mmHg 93%
    10:00 -12°C° 0 mm 1 mps 751 mmHg 91%
    11:00 -10°C° 0 mm 1 mps 751 mmHg 89%
    12:00 -9°C° 0 mm 1 mps 751 mmHg 88%
    13:00 -9°C° 0 mm 1 mps 751 mmHg 87%
    14:00 -8°C° 0 mm 1 mps 750 mmHg 86%
    15:00 -8°C° 0 mm 1 mps 750 mmHg 88%
    16:00 -9°C° 0 mm 1 mps 750 mmHg 90%
    17:00 -9°C° 0 mm 1 mps 750 mmHg 92%
    18:00 -12°C° 0.1 mm 2 mps 750 mmHg 93%
    19:00 -12°C° 0.1 mm 2 mps 750 mmHg 93%
    20:00 -13°C° 0.1 mm 2 mps 750 mmHg 94%
    21:00 -13°C° 0 mm 2 mps 750 mmHg 94%
    22:00 -14°C° 0 mm 2 mps 751 mmHg 94%
    23:00 -15°C° 0 mm 2 mps 751 mmHg 94%

    Tomorrow, 22 February, Thursday

    Time Temperature Precipitation Wind Pressure Humidity
    00:00 -15°C° 0 mm 2 mps 751 mmHg 94%
    01:00 -16°C° 0 mm 2 mps 751 mmHg 94%
    02:00 -17°C° 0 mm 3 mps 751 mmHg 95%
    03:00 -18°C° 0 mm 3 mps 751 mmHg 95%
    04:00 -18°C° 0 mm 3 mps 751 mmHg 95%
    05:00 -19°C° 0 mm 3 mps 752 mmHg 95%
    06:00 -19°C° 0 mm 3 mps 752 mmHg 95%
    07:00 -19°C° 0 mm 3 mps 752 mmHg 95%
    08:00 -19°C° 0 mm 3 mps 752 mmHg 95%
    09:00 -18°C° 0 mm 3 mps 752 mmHg 94%
    10:00 -16°C° 0 mm 3 mps 752 mmHg 93%
    11:00 -15°C° 0 mm 3 mps 752 mmHg 92%
    12:00 -14°C° 0 mm 3 mps 752 mmHg 90%
    13:00 -13°C° 0 mm 3 mps 752 mmHg 89%
    14:00 -12°C° 0 mm 3 mps 752 mmHg 88%
    15:00 -13°C° 0 mm 3 mps 752 mmHg 89%
    16:00 -13°C° 0 mm 2 mps 752 mmHg 91%
    17:00 -15°C° 0 mm 2 mps 752 mmHg 92%
    18:00 -16°C° 0 mm 2 mps 752 mmHg 93%
    19:00 -17°C° 0 mm 2 mps 752 mmHg 94%
    20:00 -18°C° 0 mm 2 mps 752 mmHg 94%
    21:00 -18°C° 0 mm 2 mps 752 mmHg 95%
    22:00 -19°C° 0 mm 2 mps 752 mmHg 95%
    23:00 -19°C° 0 mm 2 mps 752 mmHg 96%

    Day after tomorrow, 23 February, Friday

    Time Temperature Precipitation Wind Pressure Humidity
    00:00 -20°C° 0 mm 2 mps 752 mmHg 96%
    01:00 -20°C° 0 mm 2 mps 753 mmHg 97%
    02:00 -21°C° 0 mm 2 mps 753 mmHg 97%
    03:00 -21°C° 0 mm 2 mps 752 mmHg 98%
    04:00 -21°C° 0 mm 2 mps 752 mmHg 98%
    05:00 -23°C° 0 mm 2 mps 752 mmHg 98%
    06:00 -21°C° 0 mm 2 mps 752 mmHg 98%
    07:00 -21°C° 0 mm 2 mps 752 mmHg 98%
    08:00 -21°C° 0 mm 2 mps 752 mmHg 98%
    09:00 -19°C° 0 mm 2 mps 752 mmHg 95%
    10:00 -17°C° 0 mm 2 mps 752 mmHg 93%
    11:00 -16°C° 0 mm 2 mps 752 mmHg 91%
    12:00 -15°C° 0 mm 2 mps 751 mmHg 89%
    13:00 -14°C° 0 mm 2 mps 751 mmHg 88%
    14:00 -13°C° 0 mm 2 mps 751 mmHg 87%
    15:00 -12°C° 0 mm 1 mps 751 mmHg 88%
    16:00 -12°C° 0 mm 1 mps 750 mmHg 90%
    17:00 -13°C° 0 mm 1 mps 750 mmHg 92%
    18:00 -16°C° 0 mm 2 mps 750 mmHg 93%
    19:00 -17°C° 0 mm 2 mps 750 mmHg 94%
    20:00 -18°C° 0 mm 2 mps 750 mmHg 95%
    21:00 -19°C° 0 mm 2 mps 750 mmHg 96%
    22:00 -19°C° 0 mm 2 mps 750 mmHg 96%
    23:00 -19°C° 0 mm 2 mps 750 mmHg 97%

    24 February, Saturday

    Time Temperature Precipitation Wind Pressure Humidity
    00:00 -21°C° 0 mm 3 mps 750 mmHg 97%
    01:00 -21°C° 0 mm 3 mps 750 mmHg 97%
    02:00 -21°C° 0 mm 3 mps 750 mmHg 98%
    03:00 -21°C° 0 mm 3 mps 750 mmHg 97%
    04:00 -21°C° 0 mm 3 mps 750 mmHg 97%
    05:00 -21°C° 0 mm 3 mps 750 mmHg 97%
    06:00 -23°C° 0 mm 4 mps 750 mmHg 97%
    07:00 -23°C° 0 mm 4 mps 751 mmHg 96%
    08:00 -23°C° 0 mm 4 mps 751 mmHg 96%
    09:00 -22°C° 0 mm 4 mps 751 mmHg 95%
    10:00 -20°C° 0 mm 4 mps 751 mmHg 94%
    11:00 -19°C° 0 mm 4 mps 752 mmHg 93%
    12:00 -18°C° 0.1 mm 4 mps 752 mmHg 92%
    13:00 -17°C° 0.1 mm 4 mps 752 mmHg 91%
    14:00 -17°C° 0.1 mm 5 mps 752 mmHg 90%
    15:00 -17°C° 0 mm 4 mps 752 mmHg 90%
    16:00 -17°C° 0 mm 4 mps 752 mmHg 91%
    17:00 -17°C° 0 mm 4 mps 752 mmHg 91%
    18:00 -18°C° 0 mm 4 mps 752 mmHg 92%
    19:00 -18°C° 0 mm 3 mps 753 mmHg 94%
    20:00 -21°C° 0 mm 3 mps 753 mmHg 95%
    21:00 -21°C° 0 mm 3 mps 753 mmHg 96%
    22:00 -22°C° 0 mm 3 mps 753 mmHg 97%
    23:00 -23°C° 0 mm 3 mps 753 mmHg 98%

    25 February, Sunday

    Time Temperature Precipitation Wind Pressure Humidity
    00:00 -23°C° 0 mm 3 mps 754 mmHg 98%
    01:00 -23°C° 0 mm 2 mps 754 mmHg 99%
    02:00 -23°C° 0 mm 2 mps 754 mmHg 99%
    03:00 -23°C° 0 mm 2 mps 754 mmHg 99%
    04:00 -24°C° 0 mm 2 mps 754 mmHg 99%
    05:00 -24°C° 0 mm 2 mps 754 mmHg 99%
    06:00 -24°C° 0 mm 2 mps 754 mmHg 99%
    07:00 -24°C° 0 mm 2 mps 754 mmHg 98%
    08:00 -23°C° 0 mm 2 mps 754 mmHg 98%
    09:00 -21°C° 0 mm 2 mps 754 mmHg 95%
    10:00 -19°C° 0 mm 2 mps 754 mmHg 93%
    11:00 -18°C° 0 mm 2 mps 754 mmHg 90%
    12:00 -17°C° 0 mm 2 mps 754 mmHg 89%
    13:00 -17°C° 0 mm 3 mps 753 mmHg 87%
    14:00 -17°C° 0 mm 3 mps 753 mmHg 86%
    15:00 -16°C° 0 mm 2 mps 753 mmHg 88%
    16:00 -17°C° 0 mm 2 mps 753 mmHg 90%
    17:00 -18°C° 0 mm 2 mps 753 mmHg 91%
    18:00 -19°C° 0 mm 2 mps 753 mmHg 93%
    19:00 -20°C° 0 mm 2 mps 753 mmHg 94%
    20:00 -21°C° 0 mm 2 mps 753 mmHg 96%
    21:00 -21°C° 0 mm 2 mps 753 mmHg 96%
    22:00 -23°C° 0 mm 2 mps 753 mmHg 97%
    23:00 -23°C° 0 mm 2 mps 753 mmHg 98%

    26 February, Monday

    Time Temperature Precipitation Wind Pressure Humidity
    00:00 -24°C° 0 mm 2 mps 753 mmHg 98%
    01:00 -21°C° 0 mm 1 mps 752 mmHg 99%
    02:00 -21°C° 0 mm 1 mps 752 mmHg 99%
    03:00 -21°C° 0 mm 1 mps 752 mmHg 99%
    04:00 -22°C° 0 mm 1 mps 752 mmHg 99%
    05:00 -25°C° 0 mm 2 mps 751 mmHg 99%
    06:00 -22°C° 0 mm 1 mps 751 mmHg 99%
    07:00 -21°C° 0 mm 1 mps 751 mmHg 98%
    08:00 -21°C° 0 mm 1 mps 751 mmHg 98%
    09:00 -21°C° 0 mm 2 mps 751 mmHg 96%
    10:00 -19°C° 0 mm 2 mps 751 mmHg 94%
    11:00 -17°C° 0 mm 2 mps 751 mmHg 91%
    12:00 -17°C° 0 mm 2 mps 751 mmHg 90%
    13:00 -16°C° 0 mm 2 mps 750 mmHg 90%
    14:00 -16°C° 0 mm 3 mps 750 mmHg 89%
    15:00 -15°C° 0 mm 2 mps 750 mmHg 90%
    16:00 -16°C° 0 mm 2 mps 750 mmHg 92%
    17:00 -16°C° 0 mm 2 mps 750 mmHg 93%
    18:00 -17°C° 0 mm 2 mps 750 mmHg 94%
    19:00 -18°C° 0 mm 2 mps 750 mmHg 95%
    20:00 -19°C° 0 mm 2 mps 750 mmHg 96%
    21:00 -19°C° 0 mm 2 mps 750 mmHg 97%
    22:00 -19°C° 0 mm 2 mps 750 mmHg 97%
    23:00 -20°C° 0 mm 2 mps 750 mmHg 98%
    Show more